Location: Cutler
(25.6150°N, 80.3110°W)
Time: 06:48:13
(UTC-04:00)

Vanguard 1 - Pass Details

Date: 27 January 2018
Orbit: 650 x 3833 km, 34.3° (Epoch: 21 May)

Event Time Altitude Azimuth Distance (km) Brightness Sun altitude
Rises 00:02:52 0° 285° (WNW) 3,364 - -79.9°
Reaches altitude 10° 00:05:01 10° 292° (WNW) 2,630 - -80.2°
Maximum altitude 00:11:02 46° 6° (N) 1,680 - -81.1°
Drops below altitude 10° 00:21:35 10° 77° (ENE) 4,549 - -82.3°
Sets 00:26:36 0° 82° (E) 6,109 - -82.7°
